"read_dt","SO2 (ppb)","flags","PMT voltage (V)","lamp voltage (V)","lamp intensity (Hz)","internal temp (C)","react chamber temp (C)","sample flow (l/min)","pres (mmHg)","SO2 bkg (ppb)","SO2 coefficient"
2014-11-15 00:00:00,2587E-3,5C000000,-0724,0834,12300,026.5,045.4,0.476,728.9,01.19,0.508
2014-11-15 00:01:00,2473E-3,5C000000,-0724,0835,12110,026.5,045.4,0.476,728.9,01.19,0.508
2014-11-15 00:02:00,2437E-3,5C000000,-0724,0834,12047,026.5,045.4,0.476,728.9,01.19,0.508
2014-11-15 00:03:00,2327E-3,5C000000,-0724,0833,12170,026.5,045.4,0.476,728.8,01.19,0.508
2014-11-15 00:04:00,2233E-3,5C000000,-0724,0833,12061,026.5,045.4,0.476,728.8,01.19,0.508
2014-11-15 00:05:00,2414E-3,5C000000,-0724,0835,12149,026.5,045.4,0.476,728.9,01.19,0.508
2014-11-15 00:06:00,2324E-3,5C000000,-0724,0834,12356,026.5,045.4,0.476,728.9,01.19,0.508
2014-11-15 00:07:00,2334E-3,5C000000,-0724,0835,12175,026.5,045.4,0.476,728.9,01.19,0.508
2014-11-15 00:08:00,2212E-3,5C000000,-0724,0834,12090,026.5,045.4,0.476,728.9,01.19,0.508
2014-11-15 00:09:00,2211E-3,5C000000,-0724,0834,12163,026.5,045.4,0.476,728.9,01.19,0.508
2014-11-15 00:10:00,2123E-3,5C000000,-0724,0834,12148,026.5,045.4,0.476,728.9,01.19,0.508
2014-11-15 00:11:00,2171E-3,5C000000,-0724,0834,12212,026.5,045.4,0.476,728.9,01.19,0.508
2014-11-15 00:12:00,2127E-3,5C000000,-0724,0835,12142,026.5,045.4,0.476,728.9,01.19,0.508
2014-11-15 00:13:00,2054E-3,5C000000,-0724,0834,12168,026.5,045.4,0.476,728.9,01.19,0.508
2014-11-15 00:14:00,2082E-3,5C000000,-0724,0835,12323,026.5,045.4,0.476,728.9,01.19,0.508
2014-11-15 00:15:00,2163E-3,5C000000,-0724,0834,12069,026.5,045.4,0.476,728.9,01.19,0.508
2014-11-15 00:16:00,2113E-3,5C000000,-0724,0835,12039,026.5,045.4,0.476,728.8,01.19,0.508
2014-11-15 00:17:00,2097E-3,5C000000,-0724,0835,12181,026.5,045.4,0.476,728.8,01.19,0.508
2014-11-15 00:18:00,2282E-3,5C000000,-0724,0834,12167,026.5,045.4,0.476,728.8,01.19,0.508
2014-11-15 00:19:00,2180E-3,5C000000,-0724,0833,12029,026.6,045.4,0.476,728.8,01.19,0.508
2014-11-15 00:20:00,2038E-3,5C000000,-0724,0834,11980,026.5,045.4,0.476,728.8,01.19,0.508
2014-11-15 00:21:00,2346E-3,5C000000,-0724,0835,12065,026.5,045.4,0.476,728.8,01.19,0.508
2014-11-15 00:22:00,2186E-3,5C000000,-0724,0834,12292,026.5,045.4,0.476,728.8,01.19,0.508
2014-11-15 00:23:00,2215E-3,5C000000,-0724,0834,12018,026.6,045.4,0.476,728.8,01.19,0.508
2014-11-15 00:24:00,2172E-3,5C000000,-0724,0833,12205,026.5,045.4,0.476,728.7,01.19,0.508
2014-11-15 00:25:00,2185E-3,5C000000,-0724,0834,12174,026.6,045.4,0.476,728.7,01.19,0.508
2014-11-15 00:26:00,2010E-3,5C000000,-0724,0834,12149,026.6,045.4,0.476,728.7,01.19,0.508
2014-11-15 00:27:00,2236E-3,5C000000,-0724,0834,12250,026.6,045.4,0.476,728.7,01.19,0.508
2014-11-15 00:28:00,2144E-3,5C000000,-0724,0834,12273,026.6,045.4,0.476,728.7,01.19,0.508
2014-11-15 00:29:00,2042E-3,5C000000,-0724,0834,12050,026.6,045.4,0.476,728.7,01.19,0.508
2014-11-15 00:30:00,2089E-3,5C000000,-0724,0833,12167,026.6,045.4,0.476,728.7,01.19,0.508
2014-11-15 00:31:00,2142E-3,5C000000,-0724,0834,12266,026.6,045.4,0.476,728.7,01.19,0.508
2014-11-15 00:32:00,2266E-3,5C000000,-0724,0836,12221,026.6,045.4,0.476,728.6,01.19,0.508
2014-11-15 00:33:00,2272E-3,5C000000,-0724,0834,12234,026.6,045.4,0.476,728.6,01.19,0.508
2014-11-15 00:34:00,2214E-3,5C000000,-0724,0835,12116,026.6,045.4,0.476,728.6,01.19,0.508
2014-11-15 00:35:00,2194E-3,5C000000,-0724,0834,12080,026.6,045.4,0.476,728.7,01.19,0.508
2014-11-15 00:36:00,2218E-3,5C000000,-0724,0834,12174,026.6,045.4,0.476,728.7,01.19,0.508
2014-11-15 00:37:00,2139E-3,5C000000,-0724,0833,12092,026.6,045.4,0.476,728.7,01.19,0.508
2014-11-15 00:38:00,2131E-3,5C000000,-0724,0834,12056,026.6,045.4,0.475,728.7,01.19,0.508
2014-11-15 00:39:00,2259E-3,5C000000,-0724,0833,12126,026.6,045.4,0.476,728.7,01.19,0.508
2014-11-15 00:40:00,2289E-3,5C000000,-0724,0834,12283,026.6,045.4,0.476,728.7,01.19,0.508
2014-11-15 00:41:00,2073E-3,5C000000,-0724,0833,12272,026.7,045.4,0.476,728.7,01.19,0.508
2014-11-15 00:42:00,2091E-3,5C000000,-0724,0835,12154,026.6,045.4,0.476,728.7,01.19,0.508
2014-11-15 00:43:00,2233E-3,5C000000,-0724,0834,12036,026.6,045.4,0.476,728.7,01.19,0.508
2014-11-15 00:44:00,2041E-3,5C000000,-0724,0834,12204,026.7,045.4,0.476,728.7,01.19,0.508
2014-11-15 00:45:00,2105E-3,5C000000,-0724,0834,12127,026.7,045.4,0.476,728.7,01.19,0.508
2014-11-15 00:46:00,2180E-3,5C000000,-0724,0833,12037,026.6,045.4,0.476,728.7,01.19,0.508
2014-11-15 00:47:00,2163E-3,5C000000,-0724,0834,12182,026.7,045.4,0.476,728.7,01.19,0.508
2014-11-15 00:48:00,2230E-3,5C000000,-0724,0834,12153,026.7,045.4,0.476,728.8,01.19,0.508
2014-11-15 00:49:00,2144E-3,5C000000,-0724,0834,12355,026.7,045.4,0.476,728.7,01.19,0.508
2014-11-15 00:50:00,2102E-3,5C000000,-0724,0835,12319,026.7,045.4,0.476,728.8,01.19,0.508
2014-11-15 00:51:00,2234E-3,5C000000,-0724,0833,12217,026.7,045.4,0.476,728.7,01.19,0.508
2014-11-15 00:52:00,2209E-3,5C000000,-0724,0834,12322,026.7,045.4,0.476,728.7,01.19,0.508
2014-11-15 00:53:00,2089E-3,5C000000,-0724,0834,12231,026.7,045.4,0.475,728.7,01.19,0.508
2014-11-15 00:54:00,2209E-3,5C000000,-0724,0834,12190,026.7,045.4,0.475,728.8,01.19,0.508
2014-11-15 00:55:00,2190E-3,5C000000,-0724,0834,12061,026.7,045.4,0.476,728.8,01.19,0.508
2014-11-15 00:56:00,2271E-3,5C000000,-0724,0835,12163,026.7,045.4,0.476,728.8,01.19,0.508
2014-11-15 00:57:00,2149E-3,5C000000,-0724,0834,12084,026.7,045.4,0.476,728.8,01.19,0.508
2014-11-15 00:58:00,2251E-3,5C000000,-0724,0833,12143,026.7,045.4,0.476,728.8,01.19,0.508
2014-11-15 00:59:00,2180E-3,5C000000,-0724,0834,12195,026.7,045.4,0.476,728.8,01.19,0.508
2014-11-15 01:00:00,2140E-3,5C000000,-0724,0835,12003,026.7,045.4,0.476,728.8,01.19,0.508
2014-11-15 01:01:00,2153E-3,5C000000,-0724,0834,12170,026.7,045.4,0.476,728.8,01.19,0.508
2014-11-15 01:02:00,2096E-3,5C000000,-0724,0833,11961,026.7,045.4,0.476,728.8,01.19,0.508
2014-11-15 01:03:00,2148E-3,5C000000,-0724,0834,12129,026.7,045.4,0.476,728.8,01.19,0.508
2014-11-15 01:04:00,2239E-3,5C000000,-0724,0833,12002,026.7,045.4,0.476,728.8,01.19,0.508
2014-11-15 01:05:00,1993E-3,5C000000,-0724,0835,12234,026.7,045.4,0.475,728.8,01.19,0.508
2014-11-15 01:06:00,2229E-3,5C000000,-0724,0834,12179,026.7,045.4,0.475,728.8,01.19,0.508
2014-11-15 01:07:00,2147E-3,5C000000,-0724,0833,12027,026.7,045.4,0.475,728.8,01.19,0.508
2014-11-15 01:08:00,2048E-3,5C000000,-0724,0833,12108,026.7,045.4,0.475,728.8,01.19,0.508
2014-11-15 01:09:00,2255E-3,5C000000,-0724,0835,12106,026.7,045.4,0.475,728.7,01.19,0.508
2014-11-15 01:10:00,2036E-3,5C000000,-0724,0834,11979,026.7,045.4,0.475,728.8,01.19,0.508
2014-11-15 01:11:00,2135E-3,5C000000,-0724,0834,12199,026.7,045.4,0.475,728.8,01.19,0.508
2014-11-15 01:12:00,2175E-3,5C000000,-0724,0834,12145,026.7,045.4,0.476,728.8,01.19,0.508
2014-11-15 01:13:00,2113E-3,5C000000,-0724,0835,12186,026.7,045.4,0.476,728.8,01.19,0.508
2014-11-15 01:14:00,2284E-3,5C000000,-0724,0834,12099,026.8,045.4,0.476,728.9,01.19,0.508
2014-11-15 01:15:00,2197E-3,5C000000,-0724,0834,12156,026.8,045.4,0.476,728.9,01.19,0.508
2014-11-15 01:16:00,2189E-3,5C000000,-0724,0834,12060,026.8,045.4,0.476,728.9,01.19,0.508
2014-11-15 01:17:00,2144E-3,5C000000,-0724,0835,12008,026.7,045.4,0.476,728.9,01.19,0.508
2014-11-15 01:18:00,2210E-3,5C000000,-0724,0834,12211,026.8,045.4,0.476,728.9,01.19,0.508
2014-11-15 01:19:00,2326E-3,5C000000,-0724,0834,12300,026.8,045.4,0.476,728.9,01.19,0.508
2014-11-15 01:20:00,2045E-3,5C000000,-0724,0834,12160,026.7,045.4,0.476,728.9,01.19,0.508
2014-11-15 01:21:00,2085E-3,5C000000,-0724,0834,12317,026.8,045.4,0.476,729.0,01.19,0.508
2014-11-15 01:22:00,2208E-3,5C000000,-0724,0834,12235,026.8,045.4,0.476,729.0,01.19,0.508
2014-11-15 01:23:00,2298E-3,5C000000,-0724,0834,12316,026.8,045.4,0.476,729.0,01.19,0.508
2014-11-15 01:24:00,2299E-3,5C000000,-0724,0834,12193,026.8,045.4,0.476,729.0,01.19,0.508
2014-11-15 01:25:00,2205E-3,5C000000,-0724,0834,12139,026.8,045.4,0.476,729.0,01.19,0.508
2014-11-15 01:26:00,2137E-3,5C000000,-0724,0834,12247,026.8,045.4,0.476,729.0,01.19,0.508
2014-11-15 01:27:00,2273E-3,5C000000,-0724,0834,12344,026.8,045.4,0.476,729.0,01.19,0.508
2014-11-15 01:28:00,2308E-3,5C000000,-0724,0834,12123,026.8,045.4,0.476,729.0,01.19,0.508
2014-11-15 01:29:00,2190E-3,5C000000,-0724,0834,12243,026.8,045.4,0.476,729.0,01.19,0.508
2014-11-15 01:30:00,2077E-3,5C000000,-0724,0835,12210,026.8,045.4,0.476,729.0,01.19,0.508
2014-11-15 01:31:00,2262E-3,5C000000,-0724,0834,12212,026.8,045.4,0.476,729.0,01.19,0.508
2014-11-15 01:32:00,2147E-3,5C000000,-0724,0834,12200,026.8,045.4,0.476,729.0,01.19,0.508
2014-11-15 01:33:00,2269E-3,5C000000,-0724,0834,12177,026.8,045.4,0.476,729.0,01.19,0.508
2014-11-15 01:34:00,2181E-3,5C000000,-0724,0834,12181,026.8,045.4,0.476,729.0,01.19,0.508
2014-11-15 01:35:00,2290E-3,5C000000,-0724,0834,12217,026.9,045.4,0.476,729.0,01.19,0.508
2014-11-15 01:36:00,2384E-3,5C000000,-0724,0834,12152,026.9,045.4,0.476,729.0,01.19,0.508
2014-11-15 01:37:00,2231E-3,5C000000,-0724,0834,12243,026.9,045.4,0.476,729.0,01.19,0.508
2014-11-15 01:38:00,2257E-3,5C000000,-0724,0835,12135,026.9,045.4,0.476,728.9,01.19,0.508
2014-11-15 01:39:00,2206E-3,5C000000,-0724,0834,12221,026.9,045.4,0.476,729.0,01.19,0.508
2014-11-15 01:40:00,2213E-3,5C000000,-0724,0835,12148,026.9,045.4,0.476,728.8,01.19,0.508
2014-11-15 01:41:00,2124E-3,5C000000,-0724,0835,12141,026.9,045.4,0.476,728.8,01.19,0.508
2014-11-15 01:42:00,2217E-3,5C000000,-0724,0835,11978,026.9,045.4,0.476,728.8,01.19,0.508
2014-11-15 01:43:00,2172E-3,5C000000,-0724,0834,12326,026.9,045.4,0.476,728.7,01.19,0.508
2014-11-15 01:44:00,2199E-3,5C000000,-0724,0834,12137,026.9,045.4,0.476,728.8,01.19,0.508
2014-11-15 01:45:00,2235E-3,5C000000,-0724,0833,12211,026.9,045.4,0.476,728.6,01.19,0.508
2014-11-15 01:46:00,2339E-3,5C000000,-0724,0834,12137,026.9,045.4,0.476,728.7,01.19,0.508
2014-11-15 01:47:00,2234E-3,5C000000,-0724,0834,12049,026.9,045.4,0.476,728.6,01.19,0.508
2014-11-15 01:48:00,2292E-3,5C000000,-0724,0834,12149,026.9,045.4,0.476,728.6,01.19,0.508
2014-11-15 01:49:00,2199E-3,5C000000,-0724,0834,12134,026.9,045.4,0.476,728.6,01.19,0.508
2014-11-15 01:50:00,2248E-3,5C000000,-0724,0834,12068,026.9,045.4,0.476,728.6,01.19,0.508
2014-11-15 01:51:00,2026E-3,5C000000,-0724,0834,12205,026.9,045.4,0.476,728.6,01.19,0.508
2014-11-15 01:52:00,2130E-3,5C000000,-0724,0835,12190,026.9,045.4,0.476,728.6,01.19,0.508
2014-11-15 01:53:00,2106E-3,5C000000,-0724,0835,12163,026.9,045.4,0.476,728.6,01.19,0.508
2014-11-15 01:54:00,2114E-3,5C000000,-0724,0835,12199,026.9,045.4,0.476,728.6,01.19,0.508
2014-11-15 01:55:00,2178E-3,5C000000,-0724,0834,12190,026.9,045.4,0.476,728.6,01.19,0.508
2014-11-15 01:56:00,2232E-3,5C000000,-0724,0835,12256,026.9,045.4,0.476,728.6,01.19,0.508
2014-11-15 01:57:00,2156E-3,5C000000,-0724,0835,12218,026.9,045.4,0.475,728.6,01.19,0.508
2014-11-15 01:58:00,2234E-3,5C000000,-0724,0834,12096,026.9,045.4,0.475,728.6,01.19,0.508
2014-11-15 01:59:00,2195E-3,5C000000,-0724,0834,12217,026.9,045.4,0.475,728.8,01.19,0.508
2014-11-15 02:00:00,2151E-3,5C000000,-0724,0834,12282,026.9,045.4,0.475,728.8,01.19,0.508
2014-11-15 02:01:00,2095E-3,5C000000,-0724,0835,12238,026.9,045.4,0.475,728.8,01.19,0.508
2014-11-15 02:02:00,2182E-3,5C000000,-0724,0834,12220,026.9,045.4,0.475,728.8,01.19,0.508
2014-11-15 02:03:00,2166E-3,5C000000,-0724,0833,12071,026.9,045.4,0.475,728.8,01.19,0.508
2014-11-15 02:04:00,2209E-3,5C000000,-0724,0833,12261,026.9,045.4,0.475,728.8,01.19,0.508
2014-11-15 02:05:00,2138E-3,5C000000,-0724,0834,12155,026.9,045.4,0.475,728.8,01.19,0.508
2014-11-15 02:06:00,2326E-3,5C000000,-0724,0834,12191,026.9,045.4,0.475,728.9,01.19,0.508
2014-11-15 02:07:00,2231E-3,5C000000,-0724,0835,12234,026.9,045.4,0.475,728.9,01.19,0.508
2014-11-15 02:08:00,2110E-3,5C000000,-0724,0835,12168,026.9,045.4,0.475,728.9,01.19,0.508
2014-11-15 02:09:00,2209E-3,5C000000,-0724,0835,12289,026.9,045.4,0.475,728.9,01.19,0.508
2014-11-15 02:10:00,2282E-3,5C000000,-0724,0834,12097,026.9,045.4,0.475,729.0,01.19,0.508
2014-11-15 02:11:00,2270E-3,5C000000,-0724,0834,12179,026.9,045.4,0.475,728.9,01.19,0.508
2014-11-15 02:12:00,2242E-3,5C000000,-0724,0835,12050,026.9,045.4,0.475,728.9,01.19,0.508
2014-11-15 02:13:00,2259E-3,5C000000,-0724,0834,12354,026.9,045.4,0.475,728.9,01.19,0.508
2014-11-15 02:14:00,2266E-3,5C000000,-0724,0834,12128,026.9,045.4,0.476,728.9,01.19,0.508
2014-11-15 02:15:00,2178E-3,5C000000,-0724,0834,12242,026.9,045.4,0.476,728.9,01.19,0.508
2014-11-15 02:16:00,2233E-3,5C000000,-0724,0834,12227,026.9,045.4,0.476,728.9,01.19,0.508
2014-11-15 02:17:00,2120E-3,5C000000,-0724,0834,12106,026.9,045.4,0.476,728.8,01.19,0.508
2014-11-15 02:18:00,2231E-3,5C000000,-0724,0835,12149,026.9,045.4,0.476,728.8,01.19,0.508
2014-11-15 02:19:00,2234E-3,5C000000,-0724,0834,12203,026.9,045.4,0.476,728.8,01.19,0.508
2014-11-15 02:20:00,2198E-3,5C000000,-0724,0835,12002,026.9,045.4,0.476,728.7,01.19,0.508
2014-11-15 02:21:00,2163E-3,5C000000,-0724,0834,12245,026.9,045.4,0.476,728.7,01.19,0.508
2014-11-15 02:22:00,2264E-3,5C000000,-0724,0834,12021,026.9,045.4,0.476,728.8,01.19,0.508
2014-11-15 02:23:00,2214E-3,5C000000,-0724,0834,12063,026.9,045.4,0.476,728.8,01.19,0.508
2014-11-15 02:24:00,2229E-3,5C000000,-0724,0834,12212,026.9,045.4,0.476,728.9,01.19,0.508
2014-11-15 02:25:00,2242E-3,5C000000,-0724,0833,12225,026.9,045.4,0.476,728.9,01.19,0.508
2014-11-15 02:26:00,2144E-3,5C000000,-0724,0834,12147,026.9,045.4,0.476,729.0,01.19,0.508
2014-11-15 02:27:00,2166E-3,5C000000,-0724,0834,11866,026.9,045.4,0.476,729.0,01.19,0.508
2014-11-15 02:28:00,2216E-3,5C000000,-0724,0834,12221,026.9,045.4,0.476,729.1,01.19,0.508
2014-11-15 02:29:00,2219E-3,5C000000,-0724,0835,12224,026.9,045.4,0.476,729.2,01.19,0.508
2014-11-15 02:30:00,2150E-3,5C000000,-0724,0834,12201,026.9,045.4,0.476,729.2,01.19,0.508
2014-11-15 02:31:00,2206E-3,5C000000,-0724,0834,12052,026.9,045.4,0.476,729.3,01.19,0.508
2014-11-15 02:32:00,2220E-3,5C000000,-0724,0834,12139,026.9,045.4,0.476,729.3,01.19,0.508
2014-11-15 02:33:00,2293E-3,5C000000,-0724,0835,12229,026.9,045.4,0.475,729.3,01.19,0.508
2014-11-15 02:34:00,2230E-3,5C000000,-0724,0834,12207,026.9,045.4,0.475,729.3,01.19,0.508
2014-11-15 02:35:00,2141E-3,5C000000,-0724,0833,12180,026.9,045.4,0.475,729.3,01.19,0.508
2014-11-15 02:36:00,2257E-3,5C000000,-0724,0834,12171,026.9,045.4,0.476,729.3,01.19,0.508
2014-11-15 02:37:00,2212E-3,5C000000,-0724,0835,12034,026.9,045.4,0.475,729.3,01.19,0.508
2014-11-15 02:38:00,2071E-3,5C000000,-0724,0834,12186,026.9,045.4,0.475,729.3,01.19,0.508
2014-11-15 02:39:00,2209E-3,5C000000,-0724,0834,12279,027.0,045.4,0.475,729.3,01.19,0.508
2014-11-15 02:40:00,2231E-3,5C000000,-0724,0834,12282,027.0,045.4,0.475,729.3,01.19,0.508
2014-11-15 02:41:00,2290E-3,5C000000,-0724,0835,12220,027.0,045.4,0.475,729.3,01.19,0.508
2014-11-15 02:42:00,2074E-3,5C000000,-0724,0834,12196,027.0,045.4,0.475,729.3,01.19,0.508
2014-11-15 02:43:00,2077E-3,5C000000,-0724,0834,12244,027.0,045.4,0.475,729.3,01.19,0.508
2014-11-15 02:44:00,2114E-3,5C000000,-0724,0835,12154,027.0,045.4,0.475,729.3,01.19,0.508
2014-11-15 02:45:00,2134E-3,5C000000,-0724,0834,12235,027.0,045.4,0.475,729.3,01.19,0.508
2014-11-15 02:46:00,2294E-3,5C000000,-0724,0834,12230,027.0,045.4,0.475,729.4,01.19,0.508
2014-11-15 02:47:00,2232E-3,5C000000,-0724,0834,12162,027.0,045.4,0.475,729.4,01.19,0.508
2014-11-15 02:48:00,2178E-3,5C000000,-0724,0834,12051,027.0,045.4,0.475,729.3,01.19,0.508
2014-11-15 02:49:00,2129E-3,5C000000,-0724,0834,12321,027.0,045.4,0.475,729.3,01.19,0.508
2014-11-15 02:50:00,2281E-3,5C000000,-0724,0835,12233,027.0,045.4,0.475,729.3,01.19,0.508
2014-11-15 02:51:00,2181E-3,5C000000,-0724,0835,12285,027.0,045.4,0.475,729.4,01.19,0.508
2014-11-15 02:52:00,2446E-3,5C000000,-0724,0834,12163,027.0,045.4,0.475,729.4,01.19,0.508
2014-11-15 02:53:00,2146E-3,5C000000,-0724,0834,12050,027.0,045.4,0.475,729.4,01.19,0.508
2014-11-15 02:54:00,2233E-3,5C000000,-0724,0834,12219,027.0,045.4,0.475,729.4,01.19,0.508
2014-11-15 02:55:00,2222E-3,5C000000,-0724,0834,12211,027.0,045.4,0.475,729.4,01.19,0.508
2014-11-15 02:56:00,2247E-3,5C000000,-0724,0835,12256,027.0,045.4,0.475,729.3,01.19,0.508
2014-11-15 02:57:00,2076E-3,5C000000,-0724,0834,12207,027.0,045.4,0.475,729.4,01.19,0.508
2014-11-15 02:58:00,2137E-3,5C000000,-0724,0834,12232,027.1,045.4,0.475,729.4,01.19,0.508
2014-11-15 02:59:00,2207E-3,5C000000,-0724,0834,11979,027.1,045.4,0.475,729.4,01.19,0.508
2014-11-15 03:00:00,2339E-3,5C000000,-0724,0835,12225,027.0,045.4,0.475,729.4,01.19,0.508
2014-11-15 03:01:00,2328E-3,5C000000,-0724,0834,12197,027.1,045.4,0.475,729.4,01.19,0.508
2014-11-15 03:02:00,2250E-3,5C000000,-0724,0834,12023,027.1,045.4,0.475,729.4,01.19,0.508
2014-11-15 03:03:00,2244E-3,5C000000,-0724,0834,12133,027.1,045.4,0.475,729.3,01.19,0.508
2014-11-15 03:04:00,2289E-3,5C000000,-0724,0834,12078,027.1,045.4,0.475,729.3,01.19,0.508
2014-11-15 03:05:00,2194E-3,5C000000,-0724,0834,11919,027.1,045.4,0.475,729.3,01.19,0.508
2014-11-15 03:06:00,2240E-3,5C000000,-0724,0834,12152,027.1,045.4,0.476,729.3,01.19,0.508
2014-11-15 03:07:00,2197E-3,5C000000,-0724,0834,12198,027.1,045.4,0.476,729.3,01.19,0.508
2014-11-15 03:08:00,2221E-3,5C000000,-0724,0834,12185,027.1,045.4,0.476,729.3,01.19,0.508
2014-11-15 03:09:00,2217E-3,5C000000,-0724,0833,12262,027.1,045.4,0.475,729.3,01.19,0.508
2014-11-15 03:10:00,2210E-3,5C000000,-0724,0835,12029,027.1,045.4,0.475,729.2,01.19,0.508
2014-11-15 03:11:00,2212E-3,5C000000,-0724,0835,12171,027.1,045.4,0.475,729.3,01.19,0.508
2014-11-15 03:12:00,2188E-3,5C000000,-0724,0835,12264,027.1,045.4,0.475,729.2,01.19,0.508
2014-11-15 03:13:00,2127E-3,5C000000,-0724,0835,12188,027.1,045.4,0.475,729.3,01.19,0.508
2014-11-15 03:14:00,2235E-3,5C000000,-0724,0834,12187,027.1,045.4,0.475,729.3,01.19,0.508
2014-11-15 03:15:00,2255E-3,5C000000,-0724,0834,12019,027.1,045.4,0.475,729.2,01.19,0.508
2014-11-15 03:16:00,2071E-3,5C000000,-0724,0835,12158,027.1,045.4,0.475,729.3,01.19,0.508
2014-11-15 03:17:00,2129E-3,5C000000,-0724,0834,12216,027.1,045.4,0.475,729.2,01.19,0.508
2014-11-15 03:18:00,2157E-3,5C000000,-0724,0834,12173,027.1,045.4,0.475,729.3,01.19,0.508
2014-11-15 03:19:00,2214E-3,5C000000,-0724,0834,12170,027.1,045.4,0.475,729.2,01.19,0.508
2014-11-15 03:20:00,2326E-3,5C000000,-0724,0835,12025,027.2,045.4,0.475,729.1,01.19,0.508
2014-11-15 03:21:00,2304E-3,5C000000,-0724,0834,12145,027.1,045.4,0.475,729.2,01.19,0.508
2014-11-15 03:22:00,2235E-3,5C000000,-0724,0834,12173,027.2,045.4,0.475,729.2,01.19,0.508
2014-11-15 03:23:00,2320E-3,5C000000,-0724,0834,12206,027.1,045.4,0.475,729.2,01.19,0.508
2014-11-15 03:24:00,2323E-3,5C000000,-0724,0833,12300,027.1,045.4,0.475,729.2,01.19,0.508
2014-11-15 03:25:00,2007E-3,5C000000,-0724,0833,12220,027.1,045.4,0.475,729.3,01.19,0.508
2014-11-15 03:26:00,2197E-3,5C000000,-0724,0834,12210,027.1,045.4,0.475,729.3,01.19,0.508
2014-11-15 03:27:00,2338E-3,5C000000,-0724,0835,12203,027.2,045.4,0.475,729.3,01.19,0.508
2014-11-15 03:28:00,2215E-3,5C000000,-0724,0834,12098,027.1,045.4,0.476,729.4,01.19,0.508
2014-11-15 03:29:00,2119E-3,5C000000,-0724,0834,12092,027.2,045.4,0.476,729.4,01.19,0.508
2014-11-15 03:30:00,2353E-3,5C000000,-0724,0835,12263,027.1,045.4,0.476,729.4,01.19,0.508
2014-11-15 03:31:00,2163E-3,5C000000,-0724,0833,12332,027.2,045.4,0.476,729.4,01.19,0.508
2014-11-15 03:32:00,2091E-3,5C000000,-0724,0835,12153,027.2,045.4,0.475,729.4,01.19,0.508
2014-11-15 03:33:00,2268E-3,5C000000,-0724,0834,12030,027.2,045.4,0.475,729.4,01.19,0.508
2014-11-15 03:34:00,2361E-3,5C000000,-0724,0834,12269,027.2,045.4,0.475,729.5,01.19,0.508
2014-11-15 03:35:00,2244E-3,5C000000,-0724,0834,12336,027.2,045.4,0.475,729.4,01.19,0.508
2014-11-15 03:36:00,2227E-3,5C000000,-0724,0834,12139,027.2,045.4,0.475,729.4,01.19,0.508
2014-11-15 03:37:00,2215E-3,5C000000,-0724,0833,12183,027.2,045.4,0.475,729.4,01.19,0.508
2014-11-15 03:38:00,2224E-3,5C000000,-0724,0834,12222,027.2,045.4,0.475,729.4,01.19,0.508
2014-11-15 03:39:00,2179E-3,5C000000,-0724,0834,12207,027.2,045.4,0.475,729.4,01.19,0.508
2014-11-15 03:40:00,2255E-3,5C000000,-0724,0834,12266,027.2,045.4,0.475,729.4,01.19,0.508
2014-11-15 03:41:00,2188E-3,5C000000,-0724,0834,12216,027.2,045.4,0.475,729.4,01.19,0.508
2014-11-15 03:42:00,2165E-3,5C000000,-0724,0834,11931,027.2,045.4,0.475,729.4,01.19,0.508
2014-11-15 03:43:00,2254E-3,5C000000,-0724,0834,12159,027.2,045.4,0.476,729.4,01.19,0.508
2014-11-15 03:44:00,2187E-3,5C000000,-0724,0834,12104,027.2,045.4,0.476,729.4,01.19,0.508
2014-11-15 03:45:00,2219E-3,5C000000,-0724,0834,12168,027.2,045.4,0.475,729.4,01.19,0.508
2014-11-15 03:46:00,2175E-3,5C000000,-0724,0834,12047,027.2,045.4,0.475,729.4,01.19,0.508
2014-11-15 03:47:00,2236E-3,5C000000,-0724,0834,12296,027.2,045.4,0.475,729.5,01.19,0.508
2014-11-15 03:48:00,2264E-3,5C000000,-0724,0834,12185,027.2,045.4,0.475,729.4,01.19,0.508
2014-11-15 03:49:00,2288E-3,5C000000,-0724,0834,12292,027.2,045.4,0.475,729.5,01.19,0.508
2014-11-15 03:50:00,2313E-3,5C000000,-0724,0835,12157,027.2,045.4,0.475,729.5,01.19,0.508
2014-11-15 03:51:00,2234E-3,5C000000,-0724,0834,12135,027.2,045.4,0.475,729.5,01.19,0.508
2014-11-15 03:52:00,2113E-3,5C000000,-0724,0834,12201,027.2,045.4,0.475,729.5,01.19,0.508
2014-11-15 03:53:00,2040E-3,5C000000,-0724,0834,12174,027.2,045.4,0.475,729.5,01.19,0.508
2014-11-15 03:54:00,2060E-3,5C000000,-0724,0834,12386,027.2,045.4,0.476,729.5,01.19,0.508
2014-11-15 03:55:00,2184E-3,5C000000,-0724,0835,12229,027.2,045.4,0.476,729.5,01.19,0.508
2014-11-15 03:56:00,2276E-3,5C000000,-0724,0834,12241,027.2,045.4,0.475,729.5,01.19,0.508
2014-11-15 03:57:00,2185E-3,5C000000,-0724,0834,12153,027.2,045.4,0.475,729.5,01.19,0.508
2014-11-15 03:58:00,2216E-3,5C000000,-0724,0834,12205,027.2,045.4,0.475,729.5,01.19,0.508
2014-11-15 03:59:00,2381E-3,5C000000,-0724,0834,12082,027.2,045.4,0.475,729.5,01.19,0.508
2014-11-15 04:00:00,2293E-3,5C000000,-0724,0836,12226,027.2,045.4,0.475,729.5,01.19,0.508
2014-11-15 04:01:00,2246E-3,5C000000,-0724,0835,12025,027.2,045.4,0.475,729.3,01.19,0.508
2014-11-15 04:02:00,2308E-3,5C000000,-0724,0834,12174,027.2,045.4,0.475,729.4,01.19,0.508
2014-11-15 04:03:00,2252E-3,5C000000,-0724,0834,12012,027.3,045.4,0.475,729.3,01.19,0.508
2014-11-15 04:04:00,2212E-3,5C000000,-0724,0834,12135,027.2,045.4,0.475,729.2,01.19,0.508
2014-11-15 04:05:00,2196E-3,5C000000,-0724,0834,12054,027.3,045.4,0.475,729.3,01.19,0.508
2014-11-15 04:06:00,2173E-3,5C000000,-0724,0834,12108,027.2,045.4,0.475,729.2,01.19,0.508
2014-11-15 04:07:00,1989E-3,5C000000,-0724,0835,12196,027.3,045.4,0.475,729.3,01.19,0.508
2014-11-15 04:08:00,2243E-3,5C000000,-0724,0834,12130,027.3,045.4,0.475,729.3,01.19,0.508
2014-11-15 04:09:00,2128E-3,5C000000,-0724,0835,12241,027.3,045.4,0.475,729.2,01.19,0.508
2014-11-15 04:10:00,2290E-3,5C000000,-0724,0834,12079,027.3,045.4,0.475,729.2,01.19,0.508
2014-11-15 04:11:00,2091E-3,5C000000,-0724,0834,12109,027.3,045.4,0.475,729.2,01.19,0.508
2014-11-15 04:12:00,2202E-3,5C000000,-0724,0833,12120,027.3,045.4,0.475,729.2,01.19,0.508
2014-11-15 04:13:00,2191E-3,5C000000,-0724,0834,12266,027.3,045.4,0.475,729.2,01.19,0.508
2014-11-15 04:14:00,2126E-3,5C000000,-0724,0834,12175,027.3,045.4,0.475,729.3,01.19,0.508
2014-11-15 04:15:00,2199E-3,5C000000,-0724,0834,12162,027.3,045.4,0.475,729.3,01.19,0.508
2014-11-15 04:16:00,2139E-3,5C000000,-0724,0834,11945,027.3,045.4,0.475,729.4,01.19,0.508
2014-11-15 04:17:00,2358E-3,5C000000,-0724,0834,12344,027.3,045.4,0.475,729.4,01.19,0.508
2014-11-15 04:18:00,2158E-3,5C000000,-0724,0834,12225,027.3,045.4,0.476,729.5,01.19,0.508
2014-11-15 04:19:00,2159E-3,5C000000,-0724,0834,12060,027.3,045.4,0.475,729.5,01.19,0.508
2014-11-15 04:20:00,2228E-3,5C000000,-0724,0834,11940,027.3,045.4,0.475,729.6,01.19,0.508